User: anonymous   Login
Location: ????? ???????
(25.7275°N, 32.5929°E)
Time: 06:14:43
(UTC+00:00)
Language:

DMSP B5D2-2 - Orbit

View from above orbital plane
View from above orbital plane
View from above satellite
View from above satellite

Ground track
Ground track

The orbit data is extracted from the following two-line orbital elements,

1 14506U 83113A   21134.30013156  .00000046  00000-0  35063-4 0  9993
2 14506  98.3026 337.0190 0010673 332.3819 200.6339 14.28148550949895
Epoch (UTC): 14 May 2021 07:12:11
Eccentricity: 0.0010673
inclination: 98.3026°
perigee height: 790 km
apogee height: 805 km
right ascension of ascending node: 337.0190°
argument of perigee: 332.3819°
revolutions per day: 14.28148550
mean anomaly at epoch: 200.6339°
orbit number at epoch: 94989

The dashed part of the orbit path shows where the satellite is in the earth's shadow,  

DLR